Location: Kuffner-Sternwarte
(48.2130°N, 16.2960°E)
Time: 15:47:07
(UTC+02:00)

COROT - Pass Details

Date: 09 May 2026
Orbit: 594 x 855 km, 90.1° (Epoch: 21 May)

Event Time Altitude Azimuth Distance (km) Brightness Sun altitude
Rises 23:11:49 0° 8° (N) 3,400 10.3 -20.6°
Reaches altitude 10° 23:14:30 10° 18° (NNE) 2,435 9.2 -20.8°
Maximum altitude 23:19:26 34° 82° (E) 1,293 7.0 -21.1°
Enters shadow 23:20:29 31° 106° (ESE) 1,354 6.9 -21.2°
